Weather in Puerto Escondido

Mexico     15°51′42″N   97°04′01″W
temp.,
°C
wind,
m/s
gust,
m/s
humid.,
%
clouds,
%
prec.,
mm/h
press.,
hPa
HPBL,
m
21 january, thu
thu2100:00+25nnw22770 0.0 1016170
03:00+24n22690 0.0 1014108
06:00+24ne22641 0.0 101593
09:00+26ene22560 0.0 1016171
12:00+27sse33610 0.0 1014293
15:00+27ssw33700 0.0 1011420
18:00+26wsw22770 0.0 1011125
21:00+25nw22770 0.0 1013100
22 january, fri
fri2200:00+25wnw33770 0.0 1013205
03:00+25nw34740 0.0 1012218
06:00+24nw23680 0.0 1013166
09:00+26wnw12590 0.0 1014204
12:00+27sw22620 0.0 1013333
15:00+27w33742 0.0 1010362
18:00+26w118423 0.0 1010186
21:00+25n11880 0.0 101350
23 january, sat
sat2300:00+25n11870 0.0 101360
03:00+24nne12850 0.0 101385
06:00+24ene228336 0.0 101399
09:00+25e347799 0.0 1015217
12:00+26sse437898 0.0 1013443
15:00+26sse3377100 0.0 1011363
18:00+25se2279100 0.0 1011187
21:00+25ne1178100 0.0 1013101
24 january, sun
sun2400:00+24n1180100 0.0 1013112
03:00+24e1179100 0.0 1012170
06:00+24ene2181100 0.0 1012174
09:00+25se0175100 0.0 1014167
12:00+26ssw227499 0.0 1013236
15:00+27ssw3270100 0.0 1010320
18:00+25w2275100 0.0 1011184
21:00+25wnw348190 0.0 1013336
25 january, mon
mon2500:00+25wnw458264 0.0 1012372
03:00+24wnw4683100 0.0 1011347
06:00+24nw458074 0.0 1011279
09:00+26wnw33700 0.0 1013284
12:00+27w56717 0.0 1011337
15:00+27w567383 0.0 1009304
18:00+27w467989 0.0 1009307
21:00+26wnw458284 0.0 1012235